Theta_e
293 298 298 297 298 298 292 291 288 290 293 295 301 303 305 307 308 309 310 316 316 315 316 317 320 320 320 322 322 322 323 323 324 332 339 344 348 351 355 356 354 352 352 353
293 299 299 296 299 299 297 296 297 298 296 301 303 305 305 307 308 308 308 310 311 312 314 315 317 319 320 322 321 324 322 322 325 327 331 335 341 344 350 352 354 353 351 350
288 296 296 290 295 297 299 299 296 293 298 302 301 304 304 306 307 308 309 310 310 311 312 313 315 317 317 320 323 322 320 321 325 326 327 331 336 341 346 348 352 353 354 351
288 290 284 293 300 304 301 302 302 302 303 304 303 304 306 309 308 308 310 311 311 312 312 313 315 315 316 321 321 320 320 320 324 327 328 331 330 331 340 345 347 350 353 350
286 285 290 297 299 299 295 298 305 303 305 306 307 305 302 308 307 308 310 312 312 314 315 316 315 317 318 320 320 319 319 319 322 324 324 323 321 322 327 337 342 346 350 346
287 284 283 295 303 306 302 291 306 305 304 304 304 294 298 304 305 305 304 306 307 308 312 314 311 310 310 312 313 314 317 316 317 319 320 319 320 320 326 334 338 345 347 348
288 286 290 299 304 305 290 291 305 306 305 303 299 300 301 302 301 302 302 302 304 306 306 309 308 306 304 305 305 309 311 310 311 314 315 316 317 319 327 333 338 343 344 346
288 286 286 304 302 294 299 304 305 304 303 301 300 299 299 299 299 299 300 301 303 303 303 307 307 305 302 301 304 306 307 307 309 312 314 315 315 317 324 332 337 341 341 341
291 292 300 303 305 306 306 303 304 302 301 300 297 297 298 296 298 299 301 301 303 303 303 305 306 305 302 302 305 307 307 307 308 309 313 314 314 317 326 334 337 340 337 337
293 298 299 305 307 307 307 305 304 302 300 298 296 297 296 297 298 298 299 301 303 303 302 302 304 305 306 306 307 308 307 307 308 310 313 314 315 323 333 337 337 337 337 337
295 298 301 304 307 308 307 306 305 302 301 298 297 296 296 296 297 299 299 301 301 301 302 302 303 305 308 307 308 307 308 309 312 314 315 314 320 314 317 326 321 337 336 335
294 300 300 300 307 309 306 304 303 300 300 300 298 296 297 296 298 299 299 302 302 304 304 304 304 305 306 308 308 308 308 311 312 317 319 320 321 315 309 306 304 305 312 322
301 305 304 307 311 310 306 304 303 300 299 298 299 298 298 297 299 301 303 303 303 306 306 306 304 305 307 308 308 308 308 311 314 317 324 321 320 319 317 315 308 302 300 301
307 306 303 310 307 310 309 307 306 302 300 299 299 300 300 302 303 304 303 305 305 308 308 306 305 306 308 309 309 308 309 310 312 313 316 319 320 321 319 318 316 317 305 302
308 307 304 307 311 310 309 305 302 300 299 299 301 302 302 301 302 303 307 307 306 309 309 307 305 306 308 309 309 307 308 310 311 311 313 315 316 315 314 312 311 312 316 312
305 306 310 309 309 309 307 304 302 300 300 301 301 302 303 303 302 304 307 308 305 305 308 307 305 307 308 308 308 309 309 310 311 310 310 311 313 314 311 309 310 310 312 313
301 299 302 306 308 308 307 307 306 305 305 304 304 305 303 304 304 305 306 308 309 310 310 310 308 308 308 308 307 308 308 306 311 308 308 309 310 313 315 314 312 313 310 309
306 305 304 305 306 306 307 310 310 309 308 309 309 308 306 305 304 304 307 309 309 309 310 311 311 309 308 308 308 309 308 306 307 306 306 308 307 306 306 306 307 309 306 306
308 307 307 307 306 306 306 306 305 307 309 308 305 305 304 305 305 307 310 311 307 307 309 308 314 314 310 310 313 308 308 308 306 305 305 305 303 305 303 304 305 306 306 306
309 306 306 305 306 305 303 304 303 304 305 305 306 304 302 303 306 307 305 307 310 308 310 308 308 303 301 304 311 304 306 306 306 305 304 303 303 302 303 304 305 305 304 305
306 305 306 306 305 306 305 305 305 304 305 304 303 303 302 304 309 308 305 304 309 311 309 311 306 302 301 305 306 305 309 305 305 307 307 304 303 303 305 305 306 307 307 308
304 305 306 305 304 304 306 304 303 305 304 303 304 306 304 303 304 307 308 307 307 309 309 307 306 306 307 310 305 306 306 307 306 305 305 303 303 304 305 305 305 305 305 305
305 305 305 304 303 304 305 305 305 305 305 304 304 304 304 305 305 305 305 308 307 309 308 306 300 309 310 301 303 304 306 307 305 304 304 303 303 302 302 303 303 303 303 303
305 304 305 306 305 304 303 305 306 306 305 308 307 306 305 306 305 307 309 308 308 308 309 307 304 308 308 303 302 302 304 304 305 304 304 301 302 302 301 301 301 301 300 300
305 306 307 306 305 306 307 307 307 308 307 307 307 308 309 310 309 310 309 309 308 308 310 307 308 308 305 300 302 302 301 301 302 303 303 302 301 301 300 300 300 300 300 300
306 307 307 308 307 307 308 309 308 309 308 309 312 311 311 313 310 309 312 311 311 310 310 309 308 307 305 302 304 302 302 302 302 301 300 301 301 300 300 299 299 299 300 300
309 307 310 310 311 311 309 308 307 308 307 308 307 309 309 308 308 308 308 307 307 305 305 304 303 304 304 303 302 302 301 300 299 300 300 299 299 300 300 299 299 299 299 299
Wind_Speed
4 2 4 4 7 7 1 5 6 7 8 2 4 5 4 7 11 13 13 8 6 5 4 4 5 6 5 5 5 4 5 7 7 7 8 9 10 10 13 14 15 18 18 17
7 7 7 3 7 8 5 13 17 12 7 1 5 7 11 9 9 9 8 10 10 9 7 7 6 6 6 7 6 5 5 7 7 7 7 10 11 12 11 13 17 16 18 19
4 6 6 5 7 9 10 10 8 5 4 2 5 6 5 7 7 7 9 11 11 10 10 9 9 9 8 8 7 6 6 7 7 7 7 8 11 12 14 13 13 18 18 19
4 4 0 4 3 16 19 11 10 9 6 6 3 1 8 7 9 10 12 14 14 11 10 12 11 10 11 8 7 7 7 7 7 6 7 6 10 13 15 11 13 14 16 11
4 2 3 3 4 1 3 3 3 8 5 3 4 3 1 12 9 8 13 13 13 14 16 14 11 9 9 6 6 6 7 6 6 6 7 10 11 11 15 14 13 14 12 11
2 2 4 4 4 3 4 1 3 7 5 8 7 6 4 13 16 16 14 11 15 15 16 13 11 10 10 7 8 9 8 10 11 10 10 11 12 13 14 14 14 12 12 12
3 3 3 2 1 2 3 5 3 6 5 4 3 1 4 9 11 13 15 17 17 13 14 12 9 9 11 11 10 10 12 13 13 12 12 12 14 13 14 14 14 14 11 10
2 3 5 2 3 2 6 4 7 5 4 5 4 3 4 6 8 9 11 13 14 13 14 15 12 10 12 11 12 13 13 14 14 13 11 11 14 14 15 15 15 14 11 7
6 6 3 4 6 4 7 6 5 5 4 6 4 3 2 3 6 7 10 10 10 9 11 13 13 11 13 14 14 16 16 17 17 15 14 14 15 15 12 13 11 11 8 6
4 3 3 4 3 5 7 8 6 6 6 6 6 6 5 6 6 5 5 8 9 10 11 12 13 14 13 15 15 17 16 17 17 14 15 15 12 11 12 8 8 9 9 8
2 3 1 4 4 7 8 9 9 7 6 7 6 6 7 6 8 7 8 8 7 8 10 12 14 14 14 14 15 17 16 16 15 12 13 13 11 3 6 5 5 6 5 6
6 8 6 5 10 11 12 11 11 8 6 6 7 8 7 8 8 10 10 10 10 11 11 13 13 14 15 15 18 15 14 10 10 9 9 9 6 3 3 4 7 7 7 7
6 8 6 4 12 8 8 10 9 8 6 7 8 9 9 7 9 10 12 11 9 5 10 11 13 14 17 19 19 18 14 14 9 7 5 3 2 4 3 4 16 17 15 12
4 7 5 7 8 9 7 10 8 5 6 7 9 7 9 9 9 9 12 14 7 2 8 9 9 11 14 19 18 20 16 17 10 11 9 5 4 3 7 9 8 6 11 11
7 7 4 5 11 9 6 8 8 8 8 8 9 11 9 11 10 11 11 12 9 4 7 9 6 9 9 15 17 18 14 10 12 11 14 11 8 8 10 12 10 7 6 6
3 6 9 9 12 12 10 10 8 9 9 10 10 11 14 11 10 12 12 9 9 5 8 9 7 11 10 11 13 8 14 19 7 10 10 11 8 9 9 12 10 7 7 5
6 3 5 5 10 10 11 12 11 11 8 9 13 13 9 10 10 9 10 8 7 9 9 9 12 12 13 7 11 4 5 5 10 8 2 3 7 5 7 4 2 2 1 4
5 5 6 7 9 8 8 11 13 11 11 14 12 10 10 8 8 9 10 12 12 10 7 11 12 13 13 13 10 12 3 4 4 5 2 3 3 4 5 8 3 3 1 3
8 8 9 9 9 8 7 7 7 9 9 9 7 8 7 7 7 5 7 10 7 7 12 6 11 12 11 11 14 7 10 5 3 4 4 7 6 5 3 4 4 4 3 5
6 7 7 7 8 7 6 4 6 7 8 6 5 5 6 7 6 7 4 5 7 6 5 8 6 6 6 10 6 5 7 10 6 3 1 0 3 4 4 5 5 5 5 5
8 7 6 7 7 6 6 4 4 4 5 4 4 6 7 7 6 7 7 4 8 8 6 10 5 5 5 6 5 5 6 5 5 5 5 5 5 6 7 7 6 8 8 8
6 6 6 5 5 2 3 4 3 4 5 5 5 5 4 7 5 7 6 6 6 8 4 5 4 7 6 6 4 5 5 6 3 4 5 5 5 5 5 5 5 5 5 5
6 4 4 4 4 4 3 4 4 5 6 7 7 7 6 5 4 3 6 7 4 7 5 5 8 9 10 5 5 6 6 4 4 2 3 3 4 4 4 4 4 5 5 5
5 5 4 4 3 2 4 5 6 8 7 7 8 8 6 5 5 5 6 8 11 8 6 7 7 12 8 4 5 5 5 5 3 3 4 6 4 4 5 5 5 4 4 5
5 5 4 3 4 5 6 7 6 7 8 8 8 7 8 7 7 9 4 5 9 7 8 6 10 9 5 2 4 4 4 3 4 5 5 4 4 4 4 4 4 3 4 4
4 4 5 7 6 5 5 4 4 5 4 5 7 7 4 6 5 5 4 5 7 8 5 5 5 4 2 3 5 3 4 5 5 4 4 4 3 2 3 2 2 1 3 4
5 5 4 4 4 6 5 5 4 7 4 5 6 5 2 3 3 3 5 1 1 2 3 3 3 5 5 5 5 4 4 4 4 3 2 2 2 4 3 2 2 2 2 4
Wind_Direction
175 329 2 307 318 318 345 174 118 199 118 135 89 79 50 30 24 34 26 41 32 10 337 320 310 311 294 270 279 268 294 311 299 292 306 302 302 293 264 248 236 237 233 234
355 9 24 335 323 316 359 88 103 117 99 50 42 44 42 42 35 31 12 357 349 340 320 308 288 265 271 271 275 255 274 280 278 284 291 303 298 293 286 277 256 236 235 234
302 344 1 24 314 80 64 43 139 106 139 128 60 49 70 45 25 359 345 333 322 312 305 303 293 284 269 253 244 252 256 269 274 273 274 292 300 304 295 287 277 253 236 232
213 31 264 223 40 98 91 65 69 82 77 62 33 353 114 35 13 354 342 332 325 317 303 299 286 278 282 265 249 257 256 257 266 280 285 294 308 303 297 285 284 272 254 230
119 177 268 330 20 62 116 86 96 111 95 84 322 257 20 12 8 347 342 337 331 327 319 305 314 331 315 301 293 287 281 281 282 285 288 294 293 292 291 288 288 280 264 231
97 131 232 208 301 355 71 119 23 96 71 36 20 24 288 350 344 339 336 326 321 322 319 338 339 337 331 322 317 305 310 310 306 297 284 284 287 290 284 279 279 275 262 249
176 221 279 240 246 49 101 217 130 96 79 62 72 142 316 341 335 325 323 323 325 321 312 314 324 333 321 315 303 296 298 295 290 283 280 278 280 279 279 280 274 268 250 230
110 170 260 297 52 164 184 166 135 119 142 109 93 42 344 319 324 319 319 325 324 326 325 320 326 323 310 302 302 300 294 289 284 282 278 284 278 277 271 271 265 264 244 214
156 208 228 307 136 122 157 141 164 139 127 128 131 196 253 280 284 300 317 321 321 320 323 324 316 314 309 303 304 305 298 291 284 278 275 280 276 271 266 261 260 249 221 206
99 312 152 134 89 152 159 139 132 128 158 157 179 196 215 256 276 270 283 299 292 308 319 325 325 312 304 303 299 302 291 282 275 265 273 273 265 264 257 260 257 248 220 211
51 267 314 256 171 151 116 124 138 169 181 174 180 211 221 246 260 268 260 273 287 291 302 320 327 321 304 302 309 308 296 290 281 261 259 261 252 261 291 261 263 237 213 180
216 204 173 215 169 167 157 167 170 169 178 197 207 221 223 246 256 268 280 283 285 291 290 308 325 322 317 317 320 310 306 298 291 273 251 241 216 169 13 358 4 58 122 127
199 193 171 185 168 151 161 163 168 187 192 187 234 237 232 247 260 269 273 271 267 293 298 304 328 334 338 337 327 328 325 332 324 314 240 129 144 160 173 103 66 44 53 68
138 128 123 164 196 174 158 176 164 186 216 216 230 250 254 256 268 260 274 279 293 149 295 292 333 342 332 335 336 327 337 339 8 20 13 18 31 101 79 69 59 39 34 66
195 211 205 175 136 169 140 151 164 200 217 242 243 251 259 268 271 275 280 290 291 186 250 277 287 300 313 321 333 324 342 348 6 15 23 4 58 49 73 69 57 51 46 60
107 145 143 146 164 164 167 175 198 215 214 239 251 255 258 262 265 274 284 272 291 292 242 258 266 264 256 268 294 311 325 326 10 28 21 347 0 42 38 71 64 27 60 46
134 139 128 159 177 169 194 200 207 218 217 226 245 254 257 268 278 288 281 269 247 280 231 240 252 263 273 281 298 274 256 319 340 84 114 236 54 1 46 41 135 280 228 174
155 138 138 139 146 177 210 215 212 220 213 226 239 256 267 258 258 279 295 299 303 307 270 241 231 246 265 293 292 293 279 265 289 307 263 153 335 55 29 22 45 133 263 332
147 134 141 151 167 182 204 212 216 205 213 219 221 239 256 275 269 284 267 290 321 306 311 290 267 247 261 259 266 262 289 296 4 266 280 315 357 14 35 330 1 43 56 74
134 141 148 159 156 156 187 213 208 202 220 224 243 244 270 286 317 301 288 267 273 254 297 306 330 334 328 323 352 207 244 272 308 38 137 333 28 38 23 52 41 40 32 33
135 148 156 161 179 190 201 186 158 229 230 199 222 250 251 269 264 286 307 310 272 289 309 312 342 324 327 329 339 357 358 355 24 14 20 36 24 31 44 52 61 64 56 65
141 124 125 133 157 193 212 218 232 225 228 251 272 262 252 279 290 293 260 235 283 292 302 311 304 292 298 337 347 9 6 352 23 37 32 27 60 55 40 46 56 51 60 67
142 153 173 174 186 216 211 222 224 213 242 254 255 255 242 241 223 249 299 281 271 296 309 299 297 294 307 358 339 333 333 323 288 60 72 55 45 58 68 72 50 52 53 56
162 171 190 207 216 253 254 257 243 249 241 249 246 242 243 272 285 241 241 273 279 290 277 265 272 293 282 310 328 342 339 325 326 36 49 68 61 68 65 66 71 74 81 78
176 189 227 220 245 253 253 255 263 262 258 260 268 249 239 227 199 264 248 253 269 278 280 285 300 292 284 76 355 10 46 62 68 82 77 88 90 102 98 90 88 91 92 104
204 221 233 237 235 243 241 241 245 262 246 255 259 261 245 242 239 241 291 298 285 281 267 289 285 286 331 75 89 63 87 76 72 70 72 62 65 110 122 123 117 136 142 152
254 238 266 287 269 260 247 239 223 265 215 227 237 249 286 294 283 244 231 302 291 51 33 14 33 63 72 87 100 117 105 96 94 86 41 42 68 141 167 202 238 243 184 188